Theta_e
301 300 301 302 304 307 313 316 319 314 313 315 317 319 321 318 320 319 321 322 323 325 326 326 327 328 329 327 328 329 329 331 332 331 330 329 329 332 332 333 335 334 335 336
301 301 300 301 303 306 315 319 317 314 314 317 319 319 320 319 320 320 320 321 323 324 324 327 326 327 324 324 327 329 330 330 332 332 330 330 329 329 331 333 336 339 340 336
301 300 299 300 303 305 312 320 318 315 313 317 321 321 320 319 317 319 319 321 321 323 325 327 327 326 324 323 325 325 330 330 331 331 332 332 331 330 330 331 335 334 333 335
300 299 299 299 302 305 313 318 321 319 318 318 319 320 320 319 320 319 320 321 321 322 324 325 325 325 324 323 323 327 330 333 332 331 329 329 330 330 331 331 332 334 335 338
299 299 298 299 301 306 314 318 320 315 319 321 320 318 321 320 320 323 321 321 321 321 322 324 325 326 326 326 326 327 330 334 333 333 330 329 329 329 329 331 331 333 334 337
298 298 297 297 300 308 312 312 315 318 317 318 320 321 321 321 321 322 323 323 323 324 325 324 327 328 330 331 331 330 332 333 332 334 330 329 331 330 329 330 333 333 334 336
297 297 297 296 298 301 308 309 311 315 318 319 319 319 320 321 322 324 321 323 325 327 326 325 324 324 324 326 328 329 333 335 334 334 333 332 332 332 332 330 330 332 333 336
297 297 297 296 296 299 307 307 310 313 317 316 318 319 320 320 321 322 323 322 325 324 324 325 325 325 325 324 325 328 328 331 330 331 332 331 331 332 332 331 332 333 333 336
296 297 296 296 296 295 306 306 306 309 313 315 314 316 317 320 321 321 320 321 322 322 322 324 325 327 326 327 325 325 327 330 330 330 331 333 332 334 335 334 337 336 340 340
297 297 296 295 296 296 298 305 301 308 310 311 311 313 316 316 318 321 321 321 321 321 324 325 326 326 326 327 328 329 327 328 327 327 329 330 331 340 340 336 342 348 346 344
297 295 295 295 295 296 298 304 297 305 309 309 308 310 314 314 315 319 320 320 320 323 323 323 325 326 326 326 328 330 332 330 329 327 328 328 335 338 339 350 348 349 349 347
297 295 295 295 295 296 299 306 304 302 303 307 307 306 308 311 314 315 317 318 323 318 322 324 325 327 327 330 328 328 334 330 333 330 329 342 341 346 347 347 348 350 349 347
297 295 294 294 295 296 297 304 305 306 308 309 308 310 309 306 307 311 314 315 324 324 324 326 327 327 329 329 329 329 332 329 334 332 332 339 340 343 345 346 347 348 348 347
295 295 294 294 295 298 298 305 306 307 308 311 314 311 311 311 308 308 310 313 318 321 320 321 325 326 325 329 329 333 333 335 331 331 339 337 341 341 342 345 346 346 347 346
295 295 294 294 297 299 301 305 306 306 308 313 313 312 311 311 310 309 310 311 313 316 318 320 322 321 325 325 326 328 328 333 337 337 337 338 340 340 340 342 343 344 344 342
295 295 294 294 301 300 306 310 308 307 307 310 316 314 312 312 311 311 312 312 313 314 316 318 319 322 323 324 326 324 327 330 329 330 333 336 337 338 339 340 340 342 341 340
295 294 294 297 302 302 307 309 308 305 307 311 315 315 314 315 314 314 315 315 314 314 315 316 317 319 319 322 324 328 327 327 327 327 328 333 332 334 335 338 338 338 338 336
294 294 294 302 302 306 308 307 306 306 308 311 316 317 315 314 315 315 314 314 314 315 315 316 317 317 318 320 319 320 323 325 325 325 326 327 330 331 333 334 337 337 338 335
295 297 303 305 306 308 308 306 306 306 309 313 314 317 320 315 317 318 316 316 318 316 317 317 317 319 318 319 318 317 320 322 322 323 324 325 326 330 329 330 333 335 335 335
300 305 307 309 309 306 305 308 310 309 310 311 314 315 317 315 316 316 318 317 318 318 318 318 319 320 318 317 318 321 322 321 322 322 323 322 326 328 324 326 328 332 333 334
305 308 308 308 306 308 309 310 312 312 314 313 314 315 317 315 318 319 318 321 321 321 321 320 319 320 319 318 320 320 320 320 321 322 322 323 324 325 325 323 323 324 332 332
306 307 306 308 309 310 311 312 312 313 315 314 315 315 315 316 317 319 320 318 319 319 320 320 320 325 323 321 320 319 319 319 320 320 321 322 322 324 324 324 323 324 329 332
305 307 309 308 309 308 311 313 314 315 314 317 317 317 316 317 318 319 320 319 319 318 319 320 324 321 319 319 319 319 319 319 320 320 321 321 322 322 323 324 322 323 326 327
306 307 307 310 310 311 313 314 315 315 316 315 315 315 316 318 320 319 320 319 319 321 321 323 321 319 318 318 318 317 318 319 320 320 321 321 322 323 323 324 323 322 327 328
306 306 309 308 310 311 311 312 313 314 314 314 314 314 315 316 318 319 319 320 320 320 323 320 318 318 317 317 318 316 316 316 318 319 320 321 322 324 325 326 323 322 325 326
307 307 310 309 310 311 311 312 314 313 313 313 314 315 316 316 316 317 318 318 320 321 319 318 317 316 316 317 317 316 314 315 316 317 320 321 322 324 326 326 325 325 328 329
308 309 308 309 311 311 312 314 314 312 312 314 313 315 316 315 315 316 317 319 321 316 316 315 315 315 315 315 315 314 314 315 315 317 320 320 325 327 328 329 328 327 330 329
Wind_Speed
15 15 14 15 15 11 4 4 5 4 9 12 18 13 16 2 7 10 8 4 7 4 6 9 12 16 9 6 8 17 16 8 10 14 10 6 11 12 12 9 13 11 11 4
15 15 14 13 13 13 4 6 2 3 10 8 10 14 7 4 13 10 9 9 5 3 5 6 9 8 13 5 9 4 10 7 10 13 11 13 11 14 13 9 12 11 12 2
15 15 14 12 11 10 5 6 5 6 13 14 9 15 11 12 9 11 8 6 2 7 8 5 6 7 5 4 10 7 4 11 11 14 4 12 14 14 13 13 12 13 16 13
14 14 14 12 8 8 3 5 2 5 7 12 11 6 7 16 10 15 11 9 11 10 8 10 7 12 9 9 4 6 9 12 14 17 18 12 11 12 14 13 15 17 10 6
14 14 13 12 8 5 4 8 6 4 4 4 7 7 11 12 14 7 10 14 13 11 9 10 10 11 9 10 12 13 10 8 13 16 15 14 13 12 14 16 13 18 22 5
14 13 13 11 8 6 3 6 6 7 8 9 9 9 10 10 4 8 11 10 13 8 6 9 8 11 6 7 7 6 8 10 11 13 17 20 14 15 15 16 14 16 12 7
14 13 11 11 8 7 6 6 5 9 7 7 9 4 4 6 8 8 10 3 7 7 4 5 11 15 14 13 11 11 7 8 10 11 14 17 9 9 9 11 15 15 14 6
13 12 10 9 8 4 7 7 3 7 8 3 5 6 6 10 4 9 4 7 4 5 5 6 9 11 13 17 17 15 13 10 9 12 12 15 15 6 10 11 14 15 14 8
11 12 10 8 7 5 7 6 4 4 10 3 8 6 10 8 10 11 9 6 4 5 11 11 13 11 12 10 15 18 17 12 10 12 14 18 15 9 6 3 11 12 17 6
11 11 10 8 6 5 3 5 3 2 11 3 4 5 6 10 13 7 10 11 8 12 9 10 11 14 15 13 14 12 14 13 15 14 14 12 16 7 2 10 2 11 9 9
11 11 10 8 6 5 4 4 5 2 7 7 4 5 7 6 7 8 5 3 11 8 12 11 9 10 9 15 13 13 13 13 12 13 16 18 1 7 10 6 5 10 11 9
10 10 9 9 7 5 5 2 7 5 6 6 7 8 11 9 5 9 2 7 8 6 6 10 7 10 6 3 10 8 6 8 5 6 9 8 6 7 6 5 5 5 6 5
9 9 8 9 8 6 4 3 6 6 7 10 9 7 7 10 14 7 7 8 6 4 7 11 6 6 4 8 12 8 14 10 7 6 7 9 5 6 9 8 7 6 4 1
10 8 8 8 8 7 5 1 5 5 7 7 6 2 3 6 10 14 11 6 5 7 10 13 7 5 9 11 6 9 7 3 11 11 8 1 9 9 9 8 7 5 4 3
8 8 7 7 7 6 3 2 2 3 3 7 6 2 2 3 8 11 10 9 7 11 11 7 8 16 3 9 13 9 6 1 4 2 10 8 5 8 7 6 6 4 2 4
7 7 6 5 5 2 5 4 1 3 3 5 3 3 3 4 7 10 9 9 9 11 12 9 13 2 4 7 11 20 2 2 7 9 9 6 6 4 6 6 4 3 2 3
6 6 5 4 3 1 3 3 3 5 2 4 5 7 8 7 8 10 9 8 10 12 14 14 12 9 10 11 12 8 8 4 3 6 8 9 2 6 5 5 3 1 5 5
5 4 3 0 4 5 1 3 4 2 2 4 4 4 9 12 12 11 11 10 11 10 13 10 10 10 10 8 17 19 6 5 8 8 5 8 8 6 3 3 2 3 7 7
3 1 5 6 2 2 3 4 2 2 3 5 6 5 3 11 9 4 7 8 7 9 11 14 9 7 7 7 13 15 9 6 10 14 12 13 7 5 3 4 6 3 5 8
5 8 2 3 4 4 3 3 3 4 4 6 9 3 1 9 5 8 8 6 4 2 7 12 9 10 11 12 12 7 6 5 10 11 11 11 6 2 5 4 9 7 6 9
5 4 2 2 3 1 4 3 5 6 5 7 10 3 1 4 4 1 3 2 3 4 5 4 5 8 11 12 3 6 8 11 11 10 10 10 10 6 8 7 14 15 8 11
5 2 3 4 3 5 5 3 4 5 3 4 3 5 7 2 4 4 4 4 3 4 6 3 7 5 7 6 4 6 8 10 10 12 13 12 12 11 12 8 10 11 7 11
4 2 4 3 4 1 5 7 4 3 6 2 2 7 5 3 4 5 4 4 5 3 4 5 4 5 4 3 4 7 10 11 12 13 12 13 14 14 14 12 10 9 18 10
5 5 1 5 5 5 1 1 2 2 2 2 4 3 1 3 4 3 4 3 3 3 5 1 2 2 3 5 8 11 14 15 16 14 14 13 13 14 14 16 15 14 13 11
5 5 3 8 8 1 4 2 3 3 4 3 5 2 5 2 3 3 2 3 5 1 2 1 1 6 9 11 13 14 16 18 17 16 14 13 12 13 13 14 16 14 11 11
3 4 6 6 4 7 6 6 8 3 1 5 5 3 3 3 3 2 5 4 4 2 2 7 9 10 14 17 19 19 22 17 16 15 15 14 12 14 11 10 13 12 9 12
4 5 8 4 2 5 3 1 2 2 1 1 2 2 4 3 2 4 4 5 5 9 9 12 15 19 22 23 22 24 16 13 13 12 12 11 9 8 7 7 8 10 11 13
Wind_Direction
347 347 348 345 346 355 2 266 229 168 168 198 217 223 237 86 223 222 244 289 274 266 217 225 261 226 194 197 232 201 222 223 251 229 246 225 291 292 226 251 231 269 289 172
347 348 350 351 352 0 345 269 34 200 183 220 213 223 254 195 227 222 214 227 251 219 228 263 243 238 85 167 242 231 207 228 240 244 246 200 243 244 251 267 278 262 281 18
349 350 350 353 353 355 341 273 192 161 211 263 294 216 222 205 238 257 236 258 221 206 220 214 209 238 140 210 254 23 358 253 247 262 96 275 196 243 239 230 243 245 239 264
350 352 353 354 357 357 348 241 337 358 194 217 228 272 227 217 185 236 207 214 232 217 224 200 224 228 169 214 141 221 233 247 259 259 278 275 265 251 221 230 239 254 273 66
350 352 356 358 9 39 35 313 329 217 319 345 238 158 220 240 224 197 214 240 209 228 237 235 221 210 227 226 182 229 226 243 259 277 268 260 257 247 261 274 236 247 259 209
347 350 357 3 18 70 355 336 289 277 132 200 233 190 215 233 259 191 295 212 241 214 231 305 24 325 342 342 304 245 236 240 248 256 252 248 232 242 257 251 245 250 267 292
342 347 356 6 14 26 41 337 316 272 255 234 209 259 198 227 200 289 202 250 243 43 321 287 266 261 250 247 243 242 265 244 263 266 272 254 245 267 302 248 260 254 252 244
341 343 351 6 16 32 62 349 360 304 282 253 166 250 218 232 137 242 226 213 15 330 278 251 234 229 235 236 232 225 226 257 255 254 257 272 265 187 235 246 259 263 245 231
346 339 345 2 19 32 71 331 359 298 300 63 357 247 228 239 211 207 222 219 258 267 254 216 232 228 216 218 223 217 220 216 258 251 252 258 273 327 82 290 266 305 324 141
344 339 340 353 18 24 47 321 339 300 281 34 327 263 303 237 280 271 184 195 233 223 243 249 230 233 245 233 207 180 212 210 226 232 253 249 285 51 290 227 321 355 16 4
336 337 337 341 1 17 66 303 325 26 282 294 303 271 268 284 262 257 100 183 226 227 225 243 243 248 233 233 240 199 202 212 227 235 245 244 28 286 260 34 19 359 4 19
331 334 337 334 341 8 55 19 337 313 259 298 300 254 244 244 279 317 261 297 288 228 250 233 260 245 233 265 234 222 254 227 258 254 234 84 46 41 29 2 354 350 352 13
320 328 332 331 333 338 353 320 324 328 279 271 238 231 240 235 238 239 288 208 348 280 320 316 280 260 311 233 235 263 214 238 264 305 180 83 36 64 37 14 355 337 334 75
308 318 329 328 330 335 336 63 296 337 296 276 133 190 241 234 217 224 230 286 310 287 277 264 275 273 252 272 341 296 72 24 240 255 76 289 80 31 19 12 11 26 66 99
297 308 319 326 327 327 309 316 289 307 301 326 1 266 234 218 198 206 217 236 266 261 239 237 249 253 337 259 276 269 288 347 314 34 18 348 23 6 5 6 15 25 77 94
288 297 305 319 321 343 61 190 270 294 318 285 242 108 171 178 175 181 200 222 238 245 257 259 263 103 317 269 242 228 197 346 14 19 337 335 306 326 354 347 349 14 69 119
282 286 293 309 310 214 257 344 225 298 292 254 251 177 164 166 170 187 203 212 229 231 241 244 266 238 192 254 267 124 17 328 322 330 319 279 334 350 340 334 335 74 104 120
278 280 279 263 129 103 23 301 275 322 251 251 270 145 166 183 194 190 204 209 217 223 244 252 229 241 210 256 261 267 185 248 297 289 296 299 305 298 305 306 261 203 139 141
265 167 132 112 130 234 257 279 262 215 225 276 245 318 116 180 226 135 222 243 215 225 216 229 248 234 231 234 235 254 273 297 305 295 278 277 284 26 357 314 258 220 183 156
163 145 182 186 173 248 196 357 183 214 216 240 262 340 196 203 221 219 156 246 264 237 258 244 231 239 248 238 229 263 305 287 275 286 271 257 319 213 250 296 319 252 201 180
148 197 137 132 154 164 233 238 212 197 223 206 248 260 143 172 263 290 176 219 230 245 200 236 221 232 202 188 195 255 257 259 268 277 282 276 271 240 255 240 266 297 168 183
206 154 154 154 206 230 248 230 196 232 204 237 236 185 210 231 254 194 262 259 283 266 146 262 248 72 68 66 45 357 294 271 272 277 278 277 270 262 250 263 229 246 221 190
166 184 189 179 227 254 237 186 178 221 161 207 205 221 216 229 253 239 225 236 233 337 202 220 59 123 86 40 354 311 304 285 277 278 281 275 266 254 251 242 243 241 202 182
211 176 294 223 200 228 148 218 34 189 188 197 257 223 241 223 212 238 242 222 307 257 251 63 134 82 315 313 302 297 290 297 293 282 278 281 267 261 251 243 243 230 225 193
219 210 229 212 236 105 124 204 158 134 201 290 292 269 259 258 276 230 290 243 229 215 56 131 31 314 305 298 299 297 295 288 272 274 277 276 268 266 257 240 238 227 223 204
238 228 250 236 176 219 192 179 177 174 355 285 237 247 236 242 257 258 245 291 343 59 324 316 327 314 300 293 293 278 290 279 268 263 266 267 268 262 248 208 208 203 193 197
232 226 237 234 209 224 125 138 94 224 20 322 307 257 222 273 262 265 302 360 9 19 344 330 331 317 304 297 284 286 278 267 259 256 258 262 239 215 196 160 143 158 152 151